Regional Weather Roundup
Issued by NWS

Home | Current Version | Previous Version | Text Only | Print | Product List | Glossary Off
Versions: 1 2 3 4 5 6 7 8 9 10 11 12 13 14 15 16 17 18 19 20 21 22 23 24 25 26 27 28

000
ASUS45 KGTF 250810
RWRMT
MONTANA HOURLY WEATHER ROUNDUP
NATIONAL WEATHER SERVICE GREAT FALLS MT
200 AM MDT SAT APR 25 2015

NOTE: "FAIR" INDICATES FEW OR NO CLOUDS BELOW 12000 FEET WITH NO
SIGNIFICANT WEATHER AND/OR OBSTRUCTIONS TO VISIBILITY.

MTZ001>007-043-250900-
WEST OF THE DIVIDE

CITY           SKY/WX    TMP DP  RH WIND       PRES   REMARKS
KALISPELL      MOSUNNY   29  24  82 S5        29.79R
MISSOULA       MOCLDY    35  24  64 CALM      29.82R
BUTTE          CLOUDY    34  26  72 W7        29.76R WCI  28
DEER LODGE       N/A     36  27  69 CALM      29.80S
EUREKA           N/A     37  27  65 SE3       29.80F
HAMILTON         N/A     34  25  69 SE3       29.80S
LIBBY            N/A     28  25  86 CALM      29.83S
$$

MTZ008-052>055-250900-
SOUTHWEST MONTANA

CITY           SKY/WX    TMP DP  RH WIND       PRES   REMARKS
BOZEMAN        LGT RAIN  35  34  96 SW7       29.76S WCI  29
DILLON         LGT SNOW  34  33  96 CALM      29.75S FOG
$$

MTZ009-010-012-014-046-048-049-054-250900-
EAST SLOPES AND CENTRAL MONTANA

CITY           SKY/WX    TMP DP  RH WIND       PRES   REMARKS
CUT BANK       CLOUDY    36  20  52 W10       29.73S WCI  28
GREAT FALLS    CLOUDY    40  38  93 SE8       29.74S
MALMSTROM AFB  CLOUDY    41  37  86 S5G13     29.74F
HELENA         CLOUDY    44  26  49 W8        29.74R
$$

MTZ011-013-016-021-045-047-050-051-250900-
NORTH CENTRAL MONTANA

CITY           SKY/WX    TMP DP  RH WIND       PRES   REMARKS
HAVRE          CLOUDY    50  26  39 NW5       29.69S
LEWISTOWN      FLURRIES  36  33  89 W10       29.72R WCI  28
CHINOOK          N/A     46  41  81 CALM      29.68F
FORT BENTON      N/A     46  28  49 CALM      29.75R
$$

MTZ017>020-022>042-056>058-061-062-250900-
EASTERN PLAINS

CITY           SKY/WX    TMP DP  RH WIND       PRES   REMARKS
BAKER          PTCLDY    41  33  73 E9        29.65R
BILLINGS       CLOUDY    46  43  89 N16       29.60R
GLASGOW        CLOUDY    52  34  50 NE7       29.60R
JORDAN           N/A     53  34  48 NW13      29.61R
LIVINGSTON     LGT RAIN  38  32  79 SW20      29.70S WCI  28
MILES CITY     PTCLDY    47  43  86 SE5       29.58S
SIDNEY         PTCLDY    48  34  57 CALM      29.64F
WOLF POINT     MOCLDY    47  40  76 NE6       29.60F
BIG TIMBER       N/A     37  36  93 SW15G25   29.69S WCI  28
FORSYTH          N/A     50  46  87 N3        29.57F
PLENTYWOOD       N/A     46  36  66 E9        29.65S
POPLAR           N/A     55  37  50 E12       29.61S
$$

REGIONAL REPORTS...DAKOTAS

CITY           SKY/WX    TMP DP  RH WIND       PRES   REMARKS
WILLISTON      MOCLDY    49  37  63 E8        29.66R
MINOT          CLEAR     37  34  89 E6        29.75R FOG
DICKINSON      CLEAR     42  38  85 E8        29.66R
BEACH          FAIR      41  37  87 E8        29.66R
CROSBY         CLOUDY    48  41  76 SE12      29.69R
WATFORD CITY   FAIR      46  39  76 CALM      29.65R
BISMARCK       CLOUDY    43  41  93 E7        29.72F
GRAND FORKS    CLOUDY    45  33  63 E7        29.82S
FARGO          CLOUDY    44  36  73 E9        29.78F
BUFFALO SD       N/A     44  37  76 E10       29.60R
RAPID CITY     PTCLDY    44  39  82 N8        29.64R
$$

REGIONAL REPORTS...WYOMING/IDAHO/WASHINGTON

CITY           SKY/WX    TMP DP  RH WIND       PRES   REMARKS
GILLETTE       MOCLDY    45  39  79 S6        29.62F
SHERIDAN       MOCLDY    46  37  71 SW7       29.55F
BUFFALO WY     CLOUDY    49  38  65 SW20      29.60F
CODY           CLOUDY    45  39  81 NE9       29.62R
YELLOWSTONE LA   N/A     33  31  92 SW3       29.72S
IDAHO FALLS    CLOUDY    43  32  65 W18G29    29.76R
SALMON         CLOUDY    39  30  70 CALM      29.78R
BOISE          MOCLDY    48  29  47 W6        29.78S
SPOKANE        MOCLDY    41  30  65 SE8       29.79R
$$

REGIONAL REPORTS...ALBERTA

CITY           SKY/WX    TMP DP  RH WIND       PRES   REMARKS
EDMONTON       CLOUDY    36  28  75 E8        29.85S WCI  29
CALGARY        CLOUDY    34  32  93 N18       29.76R WCI  23
LETHBRIDGE     CLOUDY    34  28  80 W8        29.73R WCI  27
MEDICINE HAT   PTCLDY    45  30  57 SW10      29.67R
$$

REGIONAL REPORTS...SASKATCHEWAN

CITY           SKY/WX    TMP DP  RH WIND       PRES   REMARKS
SWIFT CURRENT  PTCLDY    39  34  81 E12       29.67R WCI  32
REGINA         MOCLDY    48  36  61 E12G18    29.70S
SASKATOON      CLOUDY    30  27  86 NE16G28   29.84S WCI  19
$$



USA.gov is the U.S. government's official web portal to all federal, state and local government web resources and services.